Location: Durkee
(44.1305°N, 107.9134°W)
Time: 21:54:20
(UTC+00:00)

X-37B - Pass Details

Date: 27 January 2022
Orbit: 329 x 342 km, 45.0° (Epoch: 18 May)

Event Time Altitude Azimuth Distance (km) Brightness Sun altitude
Rises 02:25:22 0° 237° (WSW) 2,107 5.3 -23.6°
Reaches altitude 10° 02:27:26 10° 230° (SW) 1,270 3.9 -23.9°
Enters shadow 02:28:11 16° 224° (SW) 979 3.1 -24.1°
